• In Hungary
  • List of Countries
  • For 7 days
  • Water Temperature
  • Satellite Maps
  • Weather Map
  • News
  • Weather Widgets
  • user-avatar
    Login

    Hourly Weather Leicester

    Today, 16 December, Saturday

    Time Temperature Precipitation Wind Pressure Humidity
    00:00 -1°C° 0 mm 4 mps 752 mmHg 83%
    01:00 0°C° 0 mm 3 mps 753 mmHg 84%
    02:00 -1°C° 0 mm 3 mps 753 mmHg 84%
    03:00 -1°C° 0 mm 3 mps 753 mmHg 85%
    04:00 -1°C° 0 mm 3 mps 754 mmHg 85%
    05:00 -1°C° 0 mm 3 mps 754 mmHg 85%
    06:00 -1°C° 0 mm 3 mps 755 mmHg 85%
    07:00 -1°C° 0 mm 3 mps 755 mmHg 84%
    08:00 -1°C° 0 mm 3 mps 755 mmHg 83%
    09:00 -1°C° 0 mm 3 mps 756 mmHg 82%
    10:00 +1°C° 0 mm 3 mps 756 mmHg 79%
    11:00 +2°C° 0 mm 3 mps 756 mmHg 76%
    12:00 +3°C° 0 mm 3 mps 756 mmHg 73%
    13:00 +2°C° 0.1 mm 3 mps 757 mmHg 76%
    14:00 +2°C° 0.1 mm 3 mps 757 mmHg 80%
    15:00 +3°C° 0.1 mm 2 mps 757 mmHg 83%
    16:00 +2°C° 0 mm 2 mps 758 mmHg 84%
    17:00 +2°C° 0 mm 2 mps 758 mmHg 85%
    18:00 +1°C° 0 mm 2 mps 758 mmHg 86%
    19:00 +1°C° 0 mm 2 mps 759 mmHg 85%
    20:00 +1°C° 0 mm 2 mps 759 mmHg 85%
    21:00 +1°C° 0 mm 2 mps 760 mmHg 85%
    22:00 +1°C° 0 mm 2 mps 760 mmHg 86%
    23:00 +1°C° 0 mm 2 mps 760 mmHg 88%

    Tomorrow, 17 December, Sunday

    Time Temperature Precipitation Wind Pressure Humidity
    00:00 +1°C° 0 mm 2 mps 761 mmHg 90%
    01:00 +1°C° 0 mm 2 mps 761 mmHg 91%
    02:00 +1°C° 0 mm 2 mps 761 mmHg 92%
    03:00 +1°C° 0 mm 2 mps 761 mmHg 93%
    04:00 +1°C° 0 mm 2 mps 761 mmHg 93%
    05:00 +1°C° 0 mm 2 mps 761 mmHg 93%
    06:00 +1°C° 0 mm 2 mps 761 mmHg 94%
    07:00 +1°C° 0 mm 3 mps 761 mmHg 94%
    08:00 +1°C° 0 mm 3 mps 761 mmHg 94%
    09:00 +1°C° 0 mm 3 mps 761 mmHg 95%
    10:00 +1°C° 0 mm 4 mps 761 mmHg 93%
    11:00 +4°C° 0 mm 4 mps 761 mmHg 91%
    12:00 +5°C° 0 mm 5 mps 760 mmHg 89%
    13:00 +5°C° 0.2 mm 5 mps 760 mmHg 90%
    14:00 +5°C° 0.2 mm 6 mps 759 mmHg 91%
    15:00 +5°C° 0.2 mm 6 mps 759 mmHg 92%
    16:00 +5°C° 0.1 mm 6 mps 759 mmHg 92%
    17:00 +5°C° 0.1 mm 6 mps 759 mmHg 92%
    18:00 +7°C° 0.1 mm 6 mps 759 mmHg 92%
    19:00 +7°C° 0 mm 5 mps 759 mmHg 93%
    20:00 +7°C° 0 mm 5 mps 760 mmHg 93%
    21:00 +8°C° 0 mm 4 mps 760 mmHg 94%
    22:00 +7°C° 0 mm 4 mps 760 mmHg 93%
    23:00 +7°C° 0 mm 3 mps 761 mmHg 93%

    Day after tomorrow, 18 December, Monday

    Time Temperature Precipitation Wind Pressure Humidity
    00:00 +5°C° 0 mm 3 mps 761 mmHg 92%
    01:00 +5°C° 0 mm 3 mps 762 mmHg 92%
    02:00 +4°C° 0 mm 3 mps 762 mmHg 91%
    03:00 +4°C° 0 mm 2 mps 763 mmHg 91%
    04:00 +4°C° 0 mm 2 mps 763 mmHg 90%
    05:00 +4°C° 0 mm 2 mps 764 mmHg 89%
    06:00 +3°C° 0 mm 2 mps 764 mmHg 89%
    07:00 +4°C° 0 mm 1 mps 764 mmHg 87%
    08:00 +4°C° 0 mm 1 mps 765 mmHg 86%
    09:00 +4°C° 0 mm 1 mps 766 mmHg 85%
    10:00 +5°C° 0 mm 1 mps 766 mmHg 82%
    11:00 +6°C° 0 mm 1 mps 766 mmHg 80%
    12:00 +7°C° 0 mm 1 mps 766 mmHg 78%
    13:00 +7°C° 0 mm 1 mps 766 mmHg 80%
    14:00 +6°C° 0 mm 1 mps 766 mmHg 82%
    15:00 +6°C° 0 mm 1 mps 766 mmHg 84%
    16:00 +6°C° 0 mm 1 mps 766 mmHg 85%
    17:00 +5°C° 0 mm 1 mps 767 mmHg 87%
    18:00 +5°C° 0 mm 1 mps 767 mmHg 88%
    19:00 +4°C° 0 mm 2 mps 767 mmHg 90%
    20:00 +4°C° 0 mm 2 mps 767 mmHg 91%
    21:00 +4°C° 0 mm 2 mps 768 mmHg 92%
    22:00 +5°C° 0 mm 2 mps 768 mmHg 93%
    23:00 +4°C° 0 mm 3 mps 768 mmHg 94%

    19 December, Tuesday

    Time Temperature Precipitation Wind Pressure Humidity
    00:00 +4°C° 0 mm 3 mps 768 mmHg 95%
    01:00 +5°C° 0 mm 3 mps 768 mmHg 96%
    02:00 +5°C° 0 mm 3 mps 768 mmHg 97%
    03:00 +5°C° 0 mm 3 mps 768 mmHg 97%
    04:00 +7°C° 0 mm 3 mps 768 mmHg 97%
    05:00 +7°C° 0 mm 3 mps 768 mmHg 97%
    06:00 +8°C° 0 mm 3 mps 768 mmHg 98%
    07:00 +8°C° 0 mm 3 mps 768 mmHg 98%
    08:00 +8°C° 0 mm 3 mps 768 mmHg 97%
    09:00 +8°C° 0 mm 3 mps 769 mmHg 97%
    10:00 +9°C° 0 mm 3 mps 769 mmHg 96%
    11:00 +10°C° 0 mm 4 mps 769 mmHg 95%
    12:00 +11°C° 0 mm 4 mps 769 mmHg 94%
    13:00 +11°C° 0 mm 4 mps 768 mmHg 95%
    14:00 +11°C° 0 mm 4 mps 768 mmHg 95%
    15:00 +11°C° 0 mm 3 mps 768 mmHg 96%
    16:00 +11°C° 0 mm 3 mps 768 mmHg 96%
    17:00 +11°C° 0 mm 3 mps 768 mmHg 96%
    18:00 +11°C° 0 mm 3 mps 769 mmHg 95%
    19:00 +10°C° 0 mm 3 mps 769 mmHg 95%
    20:00 +10°C° 0 mm 3 mps 769 mmHg 95%
    21:00 +10°C° 0 mm 3 mps 769 mmHg 95%
    22:00 +10°C° 0 mm 3 mps 769 mmHg 96%
    23:00 +10°C° 0 mm 3 mps 769 mmHg 96%

    20 December, Wednesday

    Time Temperature Precipitation Wind Pressure Humidity
    00:00 +10°C° 0 mm 3 mps 769 mmHg 96%
    01:00 +9°C° 0 mm 3 mps 769 mmHg 96%
    02:00 +9°C° 0 mm 3 mps 769 mmHg 95%
    03:00 +9°C° 0 mm 3 mps 769 mmHg 95%
    04:00 +9°C° 0 mm 3 mps 769 mmHg 95%
    05:00 +9°C° 0 mm 3 mps 769 mmHg 95%
    06:00 +9°C° 0 mm 3 mps 769 mmHg 95%
    07:00 +9°C° 0 mm 3 mps 770 mmHg 95%
    08:00 +9°C° 0 mm 3 mps 770 mmHg 95%
    09:00 +9°C° 0 mm 3 mps 770 mmHg 95%
    10:00 +9°C° 0 mm 3 mps 770 mmHg 93%
    11:00 +10°C° 0 mm 3 mps 770 mmHg 91%
    12:00 +11°C° 0 mm 4 mps 770 mmHg 89%
    13:00 +11°C° 0 mm 4 mps 770 mmHg 90%
    14:00 +10°C° 0 mm 3 mps 770 mmHg 91%
    15:00 +10°C° 0 mm 3 mps 769 mmHg 92%
    16:00 +10°C° 0 mm 4 mps 769 mmHg 91%
    17:00 +8°C° 0 mm 4 mps 769 mmHg 91%
    18:00 +8°C° 0 mm 5 mps 769 mmHg 91%
    19:00 +8°C° 0 mm 5 mps 769 mmHg 90%
    20:00 +8°C° 0 mm 5 mps 769 mmHg 90%
    21:00 +8°C° 0 mm 6 mps 769 mmHg 89%
    22:00 +8°C° 0 mm 6 mps 769 mmHg 89%
    23:00 +8°C° 0 mm 6 mps 768 mmHg 88%

    21 December, Thursday

    Time Temperature Precipitation Wind Pressure Humidity
    00:00 +8°C° 0 mm 6 mps 768 mmHg 87%
    01:00 +8°C° 0 mm 6 mps 768 mmHg 88%
    02:00 +8°C° 0 mm 6 mps 768 mmHg 88%
    03:00 +8°C° 0 mm 6 mps 767 mmHg 89%
    04:00 +9°C° 0 mm 6 mps 767 mmHg 90%
    05:00 +9°C° 0 mm 6 mps 767 mmHg 90%
    06:00 +9°C° 0 mm 5 mps 767 mmHg 91%
    07:00 +9°C° 0 mm 5 mps 768 mmHg 92%
    08:00 +10°C° 0 mm 4 mps 768 mmHg 92%
    09:00 +10°C° 0 mm 4 mps 768 mmHg 93%
    10:00 +10°C° 0 mm 4 mps 768 mmHg 91%
    11:00 +10°C° 0 mm 3 mps 768 mmHg 89%
    12:00 +10°C° 0 mm 3 mps 768 mmHg 88%
    13:00 +10°C° 0 mm 3 mps 768 mmHg 88%
    14:00 +9°C° 0 mm 3 mps 768 mmHg 88%
    15:00 +9°C° 0 mm 2 mps 768 mmHg 88%
    16:00 +8°C° 0 mm 3 mps 768 mmHg 89%
    17:00 +8°C° 0 mm 3 mps 768 mmHg 90%
    18:00 +7°C° 0 mm 3 mps 768 mmHg 92%
    19:00 +7°C° 0 mm 3 mps 768 mmHg 91%
    20:00 +7°C° 0 mm 3 mps 768 mmHg 91%
    21:00 +5°C° 0 mm 4 mps 768 mmHg 91%
    22:00 +5°C° 0 mm 4 mps 768 mmHg 89%
    23:00 +6°C° 0 mm 4 mps 768 mmHg 88%
    Show more